Wetbulb
31.67 31.95 32.51 33.42 32.99 33.29 34.48 35.27 35.67 36.66 37.16 37.68 39.04 40.57 42.29 40.69 41.30 42.05 43.09 44.36 47.41 50.28
30.97 31.81 31.80 32.54 33.66 33.24 35.01 35.50 35.67 36.04 36.36 37.62 39.39 41.00 38.83 37.74 37.96 39.50 40.49 42.56 44.27 47.76
30.25 31.28 31.97 32.44 32.40 33.16 33.59 34.48 35.46 35.85 36.19 37.02 38.70 37.12 35.80 35.47 36.06 36.11 39.50 41.77 42.96 45.38
29.84 30.66 31.37 31.11 31.73 33.08 32.72 33.84 34.57 34.87 35.57 36.21 36.80 34.27 33.71 32.39 33.81 34.05 35.94 39.84 40.54 43.68
29.43 30.12 29.81 30.36 31.33 31.25 31.22 32.82 33.60 34.15 34.68 35.89 34.77 33.46 32.46 31.33 31.69 32.33 33.23 36.25 37.77 40.45
28.21 28.34 28.67 29.63 30.70 30.69 31.12 31.45 31.29 32.33 32.92 32.62 32.05 32.96 31.16 31.05 30.37 30.93 32.23 33.65 35.39 36.86
26.84 27.75 28.43 29.81 30.17 30.28 30.81 31.02 30.22 30.35 31.51 30.68 30.00 31.37 30.21 30.35 29.33 29.59 30.58 32.04 33.68 34.26
26.78 27.68 28.89 28.72 29.19 29.53 30.05 30.70 29.48 29.30 29.74 29.12 28.92 29.47 28.65 29.85 28.70 28.08 28.36 29.76 31.07 33.67
26.15 26.49 27.78 27.57 27.78 27.59 28.21 29.25 28.14 28.13 28.67 27.02 28.45 28.50 29.42 30.06 27.87 27.92 27.75 27.18 28.84 30.37
25.55 25.32 26.07 27.42 26.35 26.18 26.09 27.21 26.81 26.48 27.65 25.99 26.56 28.10 29.00 29.97 27.77 27.19 27.17 27.14 27.67 28.73
24.64 24.67 25.42 25.46 24.90 25.32 25.73 25.58 26.33 25.85 26.41 24.89 25.43 27.30 28.25 29.23 26.82 26.62 27.21 27.79 27.92 28.46
24.38 24.17 24.50 24.33 23.82 24.86 24.73 24.94 25.46 26.20 25.07 23.40 23.32 26.36 28.15 27.18 26.03 24.96 25.52 27.32 28.21 28.88
24.33 23.62 23.94 24.15 23.33 24.45 24.25 24.83 25.12 26.31 24.16 24.36 22.71 25.52 27.52 26.56 24.94 23.49 23.37 24.98 26.43 27.99
23.62 23.35 24.42 23.79 23.44 23.18 23.12 23.47 23.73 23.87 22.36 22.72 23.30 24.38 26.73 26.18 23.84 23.36 21.59 22.54 23.71 25.04
MSLP
1023.27 1023.01 1022.48 1021.72 1021.15 1020.59 1019.66 1019.08 1018.54 1017.77 1017.01 1016.00 1015.18 1014.31 1013.39 1012.84 1012.07 1011.07 1010.24 1008.75 1007.37 1005.53
1023.44 1022.79 1022.26 1021.61 1021.12 1020.41 1019.72 1018.99 1018.14 1017.30 1016.61 1015.90 1015.08 1014.19 1013.61 1012.81 1011.84 1010.80 1009.70 1008.20 1006.69 1004.95
1023.37 1022.74 1022.10 1021.43 1020.84 1020.23 1019.54 1018.71 1017.91 1017.23 1016.59 1015.83 1014.76 1014.32 1013.74 1012.66 1011.60 1010.50 1008.90 1007.34 1005.71 1003.85
1023.20 1022.61 1022.02 1021.43 1020.77 1020.01 1019.31 1018.59 1017.83 1017.23 1016.50 1015.59 1014.79 1014.37 1013.68 1012.72 1011.35 1010.22 1008.71 1006.84 1005.12 1002.93
1023.21 1022.63 1022.00 1021.36 1020.70 1020.03 1019.27 1018.58 1017.89 1017.16 1016.50 1015.58 1014.88 1014.35 1013.68 1012.73 1011.58 1010.21 1008.69 1006.96 1005.01 1002.72
1023.13 1022.53 1021.90 1021.33 1020.61 1020.00 1019.29 1018.57 1017.90 1017.22 1016.49 1015.80 1015.16 1014.32 1013.71 1012.84 1011.67 1010.22 1008.97 1007.42 1005.65 1003.48
1023.15 1022.62 1021.99 1021.33 1020.72 1020.11 1019.35 1018.56 1017.94 1017.34 1016.59 1015.97 1015.34 1014.47 1013.67 1012.54 1011.45 1010.29 1009.08 1007.71 1006.31 1004.47
1023.46 1022.77 1022.03 1021.44 1020.88 1020.22 1019.52 1018.76 1018.17 1017.43 1016.74 1016.09 1015.36 1014.49 1013.54 1012.60 1011.58 1010.28 1009.15 1008.07 1006.89 1005.30
1023.77 1022.96 1022.15 1021.65 1020.99 1020.42 1019.72 1019.09 1018.38 1017.58 1016.83 1016.12 1015.48 1014.70 1013.76 1012.69 1011.77 1010.65 1009.45 1008.42 1007.40 1006.37
1023.87 1023.23 1022.47 1021.83 1021.29 1020.73 1020.01 1019.34 1018.58 1017.84 1017.06 1016.36 1015.67 1014.80 1013.82 1012.83 1012.04 1011.07 1009.99 1008.84 1007.82 1006.69
1024.03 1023.34 1022.78 1022.12 1021.50 1020.91 1020.32 1019.62 1018.74 1018.02 1017.37 1016.67 1015.84 1014.94 1013.94 1012.80 1012.00 1011.14 1010.27 1009.20 1008.25 1007.10
1024.19 1023.55 1022.96 1022.36 1021.77 1021.16 1020.53 1019.79 1018.95 1018.24 1017.66 1016.98 1016.14 1015.20 1013.95 1012.79 1011.89 1011.15 1010.36 1009.46 1008.57 1007.33
1024.42 1023.86 1023.16 1022.59 1022.02 1021.48 1020.81 1019.97 1019.25 1018.43 1018.08 1017.35 1016.53 1015.51 1014.22 1013.13 1012.15 1011.34 1010.62 1009.67 1009.15 1008.58
1024.65 1024.10 1023.32 1022.84 1022.24 1021.64 1020.98 1020.22 1019.48 1018.89 1018.43 1017.71 1016.94 1015.96 1014.85 1013.79 1012.92 1011.96 1011.05 1010.31 1009.39 1008.82
Wind_Speed
6 5 6 9 10 9 9 10 14 13 14 17 17 16 14 11 11 13 14 20 19 16
7 7 7 9 9 8 11 10 13 14 16 15 16 13 14 11 13 14 15 16 18 18
7 7 8 8 10 11 11 13 13 14 15 15 14 13 15 13 14 16 14 13 19 18
9 9 9 10 11 11 12 13 14 14 15 16 12 15 14 18 17 18 18 18 19 21
8 9 9 10 11 12 13 13 14 14 14 14 13 13 14 17 18 17 19 19 19 20
9 9 10 11 12 12 13 12 13 14 13 15 15 13 15 16 17 17 17 18 17 19
9 10 10 11 12 13 12 12 13 13 13 13 14 13 16 17 17 16 16 17 16 13
10 10 10 11 11 12 12 12 12 12 12 13 12 11 18 17 15 16 16 15 16 12
10 11 10 11 12 12 13 13 12 12 12 13 10 24 27 24 13 14 14 14 13 14
10 11 11 11 11 12 12 13 11 12 12 13 12 25 27 28 10 11 12 13 13 12
11 11 11 11 11 11 11 12 11 11 12 13 12 25 26 28 14 11 12 11 12 13
10 11 11 12 12 11 11 11 11 11 12 14 13 25 27 23 13 13 14 12 11 14
10 10 11 11 11 10 10 11 10 10 11 17 13 23 27 24 11 14 11 12 12 18
10 10 10 10 9 10 10 11 10 9 10 12 14 15 26 28 13 12 12 11 11 11
Wind_Direction
311 316 319 335 340 329 329 327 325 324 316 316 316 304 306 325 303 296 291 286 282 269
318 317 314 314 316 330 324 324 328 326 323 321 310 318 329 316 310 302 294 283 281 281
314 320 321 321 320 316 326 325 330 329 326 323 324 337 332 324 316 311 301 295 288 280
333 333 334 333 331 336 328 328 332 331 328 323 336 338 333 331 322 320 312 307 309 300
331 335 338 336 331 334 331 334 330 332 335 332 339 338 338 331 326 325 321 315 322 325
337 337 337 336 336 334 331 331 338 333 338 338 343 330 341 332 327 325 323 322 322 339
340 336 334 336 337 332 331 332 335 338 336 337 337 331 340 331 331 328 329 331 325 356
337 335 334 339 336 335 333 333 335 332 333 339 340 335 339 335 334 329 333 333 336 334
337 337 341 339 341 336 335 331 336 335 333 340 337 337 340 343 335 330 332 335 336 334
338 340 342 338 341 337 335 331 334 334 336 338 336 343 340 342 335 325 328 335 333 337
338 340 339 339 341 336 333 331 329 332 338 338 338 344 341 345 337 336 334 331 336 334
336 336 338 340 337 335 334 330 331 333 343 341 341 345 345 351 343 341 344 342 338 356
336 336 334 337 335 331 330 332 329 339 347 342 340 341 352 356 347 342 346 346 348 352
336 332 339 334 334 335 337 336 332 355 344 345 345 342 354 358 354 348 344 345 349 345